DELTA 1 DEB, 18600

Orbit data source: Space-Track

DELTA 1 DEB, 18600 is space debris in LEO originally from a launch on Thu, 29 Jul 1976 UTC launched from the Air Force Western Test Range (AFWTR). Debris objects in space refer to the collection of defunct objects orbiting the Earth. Examples of debris include non-operational satellites, rocket bodies, and fragments generated from explosions, collisions, or faulty payload assembly.

Loading next visibility...
Identifier
18600, 1976-077FF
Orbit
LEO
Country
Flag of USUS
Related business
Manufacturer
Unknown
Mission
Spacecraft
Bus & Motor
Unknown
Mass
Unknown
Launch date (UTC)
1976-07-29 (50 years ago)
Launch vehicle
Unknown
Launch site
Air Force Western Test Range (AFWTR)
Object type
Payload
Rocket body
Debris
Shape & HBR
Unknown shape, 1.1 m
Radar Cross Section
Medium (>0.1 m² and <1 m²)

Expand to show TLE details & history
Last TLE update: 2 days ago

TLE from 2 days ago
0 DELTA 1 DEB
1 18600U 76077FF  26106.25010177 -.00000323  00000-0 -70776-2 0  9999
2 18600 102.0464 203.7244 0789914 143.4215 248.6560 10.91725639461447
Epoch: 2026-04-16T06:00Z
TLE epoch observation values (Epoch: 2026-04-16T06:00:08.792Z)
Latitude
23.42456°
Longitude
-95.99433°
Altitude
2,498.824 km
Speed
6.589 km/s
True Right ascension
13h 13m 46s
True Declination
23° 19' 26"
Sunlit
Object was in full shadow at epoch
Visualization orbit readout
Latitude
Unknown
Longitude
Unknown
Altitude
Unknown
Speed
Unknown
Apparent Right ascension
Unknown
Apparent Declination
Unknown
Sunlit
N/A
Visualization observer readout
Local Sidereal Time
02:11:53
Azimuth
Unknown
Elevation
Unknown
Doppler factor
Unknown
Orbital elements
Apogee altitude
2,880.858 km
Perigee altitude
1,525.183 km
Semi-major axis
8,581.157 km
Eccentricity
0.07899
Inclination
102.0464°
RAAN
203.7244°
Arg. of periapsis
143.4215°
True anomaly
240.545°
Mean anomaly
248.656°
Eccentric anomaly
244.56868°
Mean motion
2.73039 °/min
Orbital period
131.85 mins
BSTAR
-0.0070776
Loading maneuver chart data...
Computing Atmospheric mass density...
Loading historical data...
Loading historical data...
Loading historical data...
Loading historical data...
Loading historical data...
Loading historical data...
Loading historical data...

Documentation

Showing up to 5 results
|